Regional Weather Roundup
Issued by NWS Newport/Morehead, NC

Current Version | Previous Version | Graphics & Text | Print | Product List | Glossary On
Versions: 1 2 3 4 5 6 7 8 9 10 11 12 13 14 15 16 17 18 19 20 21 22 23 24 25 26 27 28 29 30 31 32 33 34 35 36 37 38 39 40 41 42 43 44 45 46 47 48 49 50
000 ASUS42 KMHX 221510 RWRMHX WEATHER ROUNDUP FOR EASTERN NORTH CAROLINA NATIONAL WEATHER SERVICE NEWPORT/MOREHEAD CITY NC 1000 AM EST MON DEC 22 2014 NOTE: "FAIR" INDICATES FEW OR NO CLOUDS BELOW 12,000 FEET WITH NO SIGNIFICANT WEATHER AND/OR OBSTRUCTIONS TO VISIBILITY NCZ015>017-031-032-045>047-102-103-221600- NORTH COAST CITY SKY/WX TMP DP RH WIND PRES REMARKS EDENTON RAIN 45 45 98 N10G20 30.14R ELIZABETH CITY HVY RAIN 51 46 83 NE18 30.14S KITTY HAWK HVY RAIN 52 51 99 N8 30.09S MANTEO DRIZZLE 53 53 99 NE10 30.10S $$ NCZ045>047-081-094-103-104-221600- CENTRAL COAST CITY SKY/WX TMP DP RH WIND PRES REMARKS FRISCO LGT RAIN 58 58 100 SE9 30.06R FOG SWANQUARTER N/A 52 N/A N/A NE5G15 30.00F $$ NCZ095-097-098-100-101-221600- SOUTHERN COAST CITY SKY/WX TMP DP RH WIND PRES REMARKS BEAUFORT CLOUDY 51 51 100 NW15 30.06R FOG CEDAR ISLAND N/A 52 N/A N/A N9 30.06S JACKSONVILLE LGT RAIN 45 43 93 N10 30.09S PINEY ISLAND CLOUDY N/A N/A N/A MISG 30.04R WILMINGTON CLOUDY 44 43 96 NW10 30.10R $$ NCZ011>013-027>030-043-044-078>080-089-090>093-098-221600- COASTAL PLAIN CITY SKY/WX TMP DP RH WIND PRES REMARKS AHOSKIE CLOUDY 39 38 94 N7 30.18S FOG CLINTON RAIN 41 41 99 N6 30.13F ELIZABETHTOWN CLOUDY 41 41 100 N3 30.12F GOLDSBORO LGT RAIN 41 41 100 N8 30.11S GREENVILLE HVY RAIN 41 41 100 N8 30.15F HAVELOCK LGT RAIN 48 46 93 N14 30.09S FOG KENANSVILLE CLOUDY 41 40 98 N8 30.13S KINSTON RAIN 41 39 93 N8 30.13S NEW BERN LGT RAIN 48 44 86 N7 30.10F FOG RICHLANDS CLOUDY 43 39 87 N9 30.11R ROCKY MOUNT CLOUDY 40 38 93 N10 30.16S WASHINGTON CLOUDY 43 41 95 N10 30.11F WHITEVILLE CLOUDY 43 41 93 NE5 30.10F $$ AMZ130-135-150-152-154-156-158-170-250-252-270-ANZ085-086-088-633-658-670-221600- MARINE OBSERVATIONS STATION/POSITION TIME TEMP WIND PRES WAVE SWELL AIR SEA DIR/SP/G HT/PER HT/PER (UTC) (F) (DEG/KT/KT) (MB) (FT/S) (FT/S) CHESAPEAKE LIGHT 1400 47 50/ 27/ 29 1021.4 64 E VA BEACH 1500 56 54 60/ 21/ 27 1019.6 6/ 6 2/ 9 DUCK 1500 50 46 40/ 24/ 28 1018.8 2 E DUCK 1500 46 N/A 7/ 6 10 NE DUCK 1500 51 N/A 6/ 6 OREGON INLET 1500 54 48 70/ 11/ 15 1018.1 13E OREGON INLT 1500 52 N/A 6/ 6 HATTERAS CG 1500 60 50 110/ 11/ 15 1017.8 DIAMOND BUOY 1500 69 1016.8 9/ 7 17 S OCRACOKE NOT AVBL CAPE LOOKOUT 1400 55 360/ 4/ 5 1016.7 BEAUFORT LAB 1500 52 51 340/ 9/ 10 1016.3 30 SE NEW RIVER 1500 57 60 360/ 16/ 17 1016.9 7/ 8 5/ 8 5 SE WRIGHTSVLE NOT AVBL 225 S CAPE HAT 1422 69 72 220/ 10/ 12 1019.9 5/ 7 3/ 7 41 SE CHARLESTON 1500 60 73 10/ 16/ 19 1017.0 6/ 9 3/ 9 $$

USA.gov is the U.S. government's official web portal to all federal, state and local government web resources and services.